View from above orbital plane
|
View from above satellite
|
Ground track
|
The orbit data is extracted from the following two-line orbital elements,
1 16111U 85090B 21058.81350098 .00014150 00000-0 12058-3 0 9992
2 16111 97.4816 254.1067 0010678 43.7906 316.4200 15.69600770955009
Epoch (UTC): | 27 February 2021 19:31:26 |
Eccentricity: | 0.0010678 |
inclination: | 97.4816° |
perigee height: | 353 km |
apogee height: | 367 km |
right ascension of ascending node: | 254.1067° |
argument of perigee: | 43.7906° |
revolutions per day: | 15.69600770 |
mean anomaly at epoch: | 316.4200° |
orbit number at epoch: | 95500 |
The dashed part of the orbit path shows where the satellite is in the earth's shadow,
|
|